Location: Unspecified
(0.0000°N, 0.0000°E)
Time: 06:53:14
(UTC+00:00)

Cosmos 1791 Rocket - Visible Passes

Search period start: 16 July 2024 00:00
Search period end: 26 July 2024 00:00
Orbit: 947 x 995 km, 82.9° (Epoch: 15 July)

Date Brightness Start Highest point End Pass type
(mag) Time Alt. Az. Time Alt. Az. Time Alt. Az.
16 Jul 7.6 05:03:29 10° SE 05:07:48 20° E 05:12:07 10° NE visible
17 Jul 6.4 05:26:00 10° SSE 05:31:47 43° E 05:37:35 10° NNE visible
17 Jul 6.7 18:30:43 10° NNW 18:36:23 36° W 18:42:01 10° SSW visible
18 Jul 7.7 18:56:32 10° NW 19:00:22 17° W 19:04:11 10° SW visible
19 Jul 7.7 04:31:41 10° ESE 04:34:49 14° E 04:37:56 10° ENE visible
20 Jul 6.8 04:53:24 10° SSE 04:58:47 32° E 05:04:11 10° NNE visible
21 Jul 5.4 05:16:38 10° S 05:22:46 68° E 05:28:57 10° N visible
21 Jul 7.6 18:22:37 10° NW 18:27:23 23° W 18:32:08 10° SW visible
22 Jul 5.1 05:40:43 10° SSW 05:46:45 58° W 05:52:52 10° N visible
23 Jul 7.2 04:21:01 10° SE 04:25:48 23° E 04:30:35 10° NE visible
24 Jul 5.9 04:43:49 10° SSE 04:49:47 50° E 04:55:47 10° NNE visible
25 Jul 4.9 05:07:33 10° S 05:13:46 78° W 05:20:02 10° N visible
